User: anonymous   Login
Location: Unspecified
(0.0000°N, 0.0000°E)
Time: 15:33:11
(UTC+00:00)
Language:

NAVSTAR 61 (USA 199) - Orbit

View from above orbital plane
View from above orbital plane
View from above satellite
View from above satellite

Ground track
Ground track

The orbit data is extracted from the following two-line orbital elements,

1 32384U 07062A   18347.50247604 -.00000077  00000-0  00000+0 0  9990
2 32384  56.4402  22.3977 0003872  93.0456  10.9385  2.00573974 80562
Epoch (UTC): 13 December 2018 12:03:33
Eccentricity: 0.0003872
inclination: 56.4402°
perigee height: 20171 km
apogee height: 20191 km
right ascension of ascending node: 22.3977°
argument of perigee: 93.0456°
revolutions per day: 2.00573974
mean anomaly at epoch: 10.9385°
orbit number at epoch: 8056

The dashed part of the orbit path shows where the satellite is in the earth's shadow,  

DLR